Weather History for KGWB - October, 2012

Change the Weather History Date:

Thursday, October 25, 2012

  Actual Average (KFWA) Record (KFWA)
Temperature  
Mean Temperature 66 °F 50 °F  
Max Temperature 77 °F 60 °F 82 °F (1963)
Min Temperature 55 °F 40 °F 23 °F (1960)
Degree Days  
Heating Degree Days 0 15  
Month to date heating degree days 294  
Since 1 July heating degree days 410  
Cooling Degree Days 1 0  
Month to date cooling degree days 8  
Year to date cooling degree days 808  
Growing Degree Days 16 (Base 50)    
Moisture  
Dew Point 52 °F    
Average Humidity 60    
Maximum Humidity 82    
Minimum Humidity 41    
Precipitation  
Precipitation 0.00 in 0.08 in 2.69 in (1991)
Month to date precipitation 2.31  
Year to date precipitation 31.95  
Snow  
Snow 0.00 in 0.00 in 0.60 in (1962)
Month to date snowfall 0.2  
Since 1 July snowfall 0.2  
Since 1 September snowfall 0.2  
Snow Depth -    
Sea Level Pressure  
Sea Level Pressure 29.94 in    
Wind  
Wind Speed 6 mph (South)    
Max Wind Speed 15 mph    
Max Gust Speed 28 mph    
Visibility 10 miles    
Events      
T = Trace of Precipitation, MM = Missing Value Source: NWS Daily Summary

Daily Weather History Graph

Daily Weather History Graph

Search for Another Location

Airport or City:

Trip Planner

Search our weather history database for the weather conditions in past years. The results will help you decide how hot, cold, wet, or windy it might be!

Date:

Astronomy

Oct. 25, 2012 Rise Set
Actual Time 8:03 AM EDT 6:43 PM EDT
Civil Twilight 7:35 AM EDT 7:12 PM EDT
Nautical Twilight 7:03 AM EDT 7:44 PM EDT
Astronomical Twilight 6:31 AM EDT 8:16 PM EDT
Moon 4:31 PM EDT (10/25) 3:57 AM EDT (10/25)
Length of Visible Light 11h 36m
Length of Day
10h 40m
Waxing Gibbous, 84% of the Moon is Illuminated
Oct 25
Waxing Gibbous
Oct 29
Full
Nov 6
Last Quarter
Nov 13
New
Nov 20
First Quarter

Hourly Weather History & Observations

Time (EDT) Temp. Dew Point Humidity Pressure Visibility Wind Dir Wind Speed Gust Speed Precip Events Conditions
12:15 AM 64.4 °F 51.8 °F 64% 30.00 in 10.0 mi SSW 5.8 mph - N/A   Clear
12:35 AM 64.4 °F 51.8 °F 64% 30.00 in 10.0 mi SSW 5.8 mph - N/A   Clear
12:55 AM 62.6 °F 51.8 °F 68% 30.00 in 10.0 mi South 4.6 mph - N/A   Clear
1:15 AM 62.6 °F 51.8 °F 68% 29.99 in 10.0 mi SSW 5.8 mph - N/A   Clear
1:35 AM 62.6 °F 51.8 °F 68% 29.99 in 10.0 mi South 4.6 mph - N/A   Clear
1:55 AM 62.6 °F 51.8 °F 68% 29.99 in 10.0 mi South 5.8 mph - N/A   Clear
2:35 AM 60.8 °F 51.8 °F 72% 29.98 in 10.0 mi South 3.5 mph - N/A   Clear
2:55 AM 60.8 °F 51.8 °F 72% 29.98 in 10.0 mi Calm Calm - N/A   Clear
3:15 AM 60.8 °F 51.8 °F 72% 29.98 in 10.0 mi Calm Calm - N/A   Clear
3:35 AM 60.8 °F 51.8 °F 72% 29.97 in 10.0 mi South 3.5 mph - N/A   Clear
3:55 AM 60.8 °F 51.8 °F 72% 29.97 in 10.0 mi South 4.6 mph - N/A   Clear
4:15 AM 60.8 °F 51.8 °F 72% 29.97 in 10.0 mi Calm Calm - N/A   Clear
4:35 AM 60.8 °F 51.8 °F 72% 29.96 in 10.0 mi SSW 3.5 mph - N/A   Clear
4:55 AM 60.8 °F 51.8 °F 72% 29.96 in 10.0 mi South 4.6 mph - N/A   Clear
5:15 AM 59.0 °F 50.0 °F 72% 29.97 in 10.0 mi South 3.5 mph - N/A   Clear
5:35 AM 59.0 °F 50.0 °F 72% 29.97 in 10.0 mi Calm Calm - N/A   Clear
5:55 AM 59.0 °F 50.0 °F 72% 29.97 in 10.0 mi Calm Calm - N/A   Clear
6:15 AM 57.2 °F 50.0 °F 77% 29.97 in 10.0 mi Calm Calm - N/A   Clear
6:35 AM 55.4 °F 50.0 °F 82% 29.97 in 10.0 mi Calm Calm - N/A   Clear
6:55 AM 59.0 °F 50.0 °F 72% 29.97 in 10.0 mi South 4.6 mph - N/A   Clear
7:15 AM 57.2 °F 50.0 °F 77% 29.98 in 10.0 mi Calm Calm - N/A   Clear
7:35 AM 57.2 °F 50.0 °F 77% 29.98 in 10.0 mi Calm Calm - N/A   Clear
8:35 AM 55.4 °F 50.0 °F 82% 29.99 in 10.0 mi Calm Calm - N/A   Clear
9:15 AM 59.0 °F 50.0 °F 72% 30.00 in 10.0 mi Calm Calm - N/A   Clear
9:35 AM 60.8 °F 51.8 °F 72% 30.00 in 10.0 mi Calm Calm - N/A   Clear
9:55 AM 62.6 °F 51.8 °F 68% 30.00 in 10.0 mi South 3.5 mph - N/A   Clear
10:15 AM 64.4 °F 51.8 °F 64% 29.99 in 10.0 mi South 5.8 mph - N/A   Clear
10:35 AM 68.0 °F 53.6 °F 60% 29.99 in 10.0 mi South 5.8 mph - N/A   Clear
10:55 AM 68.0 °F 53.6 °F 60% 29.99 in 10.0 mi South 6.9 mph 16.1 mph N/A   Clear
11:15 AM 69.8 °F 53.6 °F 56% 29.98 in 10.0 mi South 6.9 mph - N/A   Clear
11:35 AM 69.8 °F 55.4 °F 60% 29.97 in 10.0 mi SSW 8.1 mph 16.1 mph N/A   Clear
11:55 AM 71.6 °F 55.4 °F 57% 29.97 in 10.0 mi SSW 11.5 mph 20.7 mph N/A   Clear
12:15 PM 71.6 °F 55.4 °F 57% 29.96 in 10.0 mi SSW 10.4 mph 19.6 mph N/A   Clear
12:35 PM 73.4 °F 55.4 °F 53% 29.96 in 10.0 mi SSW 15.0 mph 20.7 mph N/A   Clear
12:55 PM 73.4 °F 55.4 °F 53% 29.95 in 10.0 mi SSW 15.0 mph 20.7 mph N/A   Scattered Clouds
1:35 PM 75.2 °F 55.4 °F 50% 29.92 in 10.0 mi SSW 15.0 mph 21.9 mph N/A   Mostly Cloudy
1:55 PM 75.2 °F 53.6 °F 47% 29.91 in 10.0 mi SSW 13.8 mph 23.0 mph N/A   Scattered Clouds
2:15 PM 77.0 °F 53.6 °F 44% 29.91 in 10.0 mi SSW 12.7 mph 21.9 mph N/A   Scattered Clouds
2:35 PM 75.2 °F 53.6 °F 47% 29.90 in 10.0 mi SSW 13.8 mph 23.0 mph N/A   Scattered Clouds
2:55 PM 77.0 °F 53.6 °F 44% 29.89 in 10.0 mi SSW 13.8 mph 20.7 mph N/A   Scattered Clouds
3:15 PM 75.2 °F 53.6 °F 47% 29.89 in 10.0 mi South 10.4 mph 25.3 mph N/A   Clear
3:35 PM 77.0 °F 51.8 °F 41% 29.88 in 10.0 mi SSW 12.7 mph 19.6 mph N/A   Clear
4:15 PM 75.2 °F 51.8 °F 44% 29.87 in 10.0 mi SSW 12.7 mph 21.9 mph N/A   Clear
4:35 PM 77.0 °F 51.8 °F 41% 29.87 in 10.0 mi South 13.8 mph 21.9 mph N/A   Clear
4:55 PM 77.0 °F 51.8 °F 41% 29.86 in 10.0 mi SSW 11.5 mph 19.6 mph N/A   Clear
5:15 PM 73.4 °F 50.0 °F 44% 29.86 in 10.0 mi South 13.8 mph 27.6 mph N/A   Clear
5:35 PM 73.4 °F 51.8 °F 47% 29.86 in 10.0 mi South 8.1 mph 17.3 mph N/A   Clear
5:55 PM 73.4 °F 51.8 °F 47% 29.86 in 10.0 mi South 11.5 mph 24.2 mph N/A   Clear
6:35 PM 71.6 °F 51.8 °F 50% 29.87 in 10.0 mi South 8.1 mph 17.3 mph N/A   Clear
6:55 PM 71.6 °F 51.8 °F 50% 29.87 in 10.0 mi South 8.1 mph - N/A   Clear
7:15 PM 71.6 °F 51.8 °F 50% 29.87 in 10.0 mi South 5.8 mph - N/A   Clear
7:35 PM 69.8 °F 51.8 °F 53% 29.87 in 10.0 mi South 8.1 mph - N/A   Clear
7:55 PM 69.8 °F 51.8 °F 53% 29.88 in 10.0 mi South 6.9 mph - N/A   Clear
8:15 PM 69.8 °F 51.8 °F 53% 29.88 in 10.0 mi South 11.5 mph 18.4 mph N/A   Clear
8:35 PM 69.8 °F 51.8 °F 53% 29.88 in 10.0 mi South 10.4 mph 16.1 mph N/A   Clear
8:55 PM 69.8 °F 51.8 °F 53% 29.89 in 10.0 mi South 8.1 mph - N/A   Mostly Cloudy
9:15 PM 69.8 °F 51.8 °F 53% 29.88 in 10.0 mi South 6.9 mph - N/A   Mostly Cloudy
9:35 PM 69.8 °F 51.8 °F 53% 29.88 in 10.0 mi South 9.2 mph - N/A   Mostly Cloudy
9:55 PM 69.8 °F 51.8 °F 53% 29.88 in 10.0 mi South 9.2 mph - N/A   Mostly Cloudy
10:15 PM 69.8 °F 51.8 °F 53% 29.88 in 10.0 mi South 9.2 mph - N/A   Mostly Cloudy
10:35 PM 69.8 °F 51.8 °F 53% 29.88 in 10.0 mi South 10.4 mph 17.3 mph N/A   Overcast
10:55 PM 69.8 °F 51.8 °F 53% 29.88 in 10.0 mi South 10.4 mph 17.3 mph N/A   Overcast
11:55 PM 69.8 °F 51.8 °F 53% 29.87 in 10.0 mi South 10.4 mph 19.6 mph N/A   Overcast